Header for Extended Forecast Station List Page

Search by: ID | Name | Date | Parm | Value | Avg | % Avg
Sort by: ID | Name | Date | Parm | Value | Avg | % Avg

Enter search or view all records.

Click on id for station plot
#IDNameDateParmValueAvg% Avg
0ABOM8CLARK FORK-ABOVE MISSOULA09-26-2022DISCHARGE (KAF)31333095
1AFRI1SNAKE-AMERICAN FALLS RESERVOIR09-26-2022INFLOW (KAF)13811190116
2ALFW1PEND OREILLE-ALBENI FALLS DAM09-26-2022INFLOW (KAF)2827361278
3ALPW4SNAKE-NEAR ALPINE09-26-2022DISCHARGE (KAF)39145786
4ANAW1SNAKE-NEAR ANATONE09-26-2022DISCHARGE (KAF)3432413983
5ANTI1HENRYS FORK-AT ST. ANTHONY09-26-2022DISCHARGE (KAF)30135086
6ARAI1SF BOISE-ANDERSON RANCH DAM09-26-2022INFLOW (KAF)616791
7ARDW1ENTIAT-NEAR ARDENVOIR09-26-2022DISCHARGE (KAF)152461
8BELM8CLARK FORK-BELOW MISSOULA09-26-2022DISCHARGE (KAF)48354888
9BERO3MALHEUR-AGENCY VALLEY DAM09-26-2022INFLOW (KAF)101472
10BFEI1KOOTENAI-AT BONNERS FERRY09-26-2022STAGE (FT)MMM
11BFTI1SNAKE-NEAR BLACKFOOT09-26-2022DISCHARGE (KAF)727591123
12BIGI1BOISE-AT GLENWOOD BRIDGE09-26-2022DISCHARGE (KAF)337246
13BITM8BITTERROOT-NEAR MISSOULA09-26-2022DISCHARGE (KAF)16920981
14BONM8BLACKFOOT-NEAR BONNER09-26-2022DISCHARGE (KAF)12213591
15BONO3COLUMBIA-BONNEVILLE DAM09-26-2022INFLOW (KAF)273083182486
16BRNI1SNAKE-BROWNLEE DAM09-26-2022INFLOW (KAF)2745280298
17BUDW1BUMPING-BUMPING LAKE DAM09-26-2022INFLOW (KAF)223466
18BULO3BULLY CREEK-BULLY CREEK DAM09-26-2022INFLOW (KAF)21177
19CABI1CLARK FORK-CABINET GORGE DAM09-26-2022INFLOW (KAF)2482327076
20CFMM8FLATHEAD-AT COLUMBIA FALLS09-26-2022DISCHARGE (KAF)85893092
21CHDW1CHELAN-LAKE CHELAN DAM09-26-2022INFLOW (KAF)13018072
22CHEI1FALL RIVER-NEAR CHESTER09-26-2022DISCHARGE (KAF)11011993
23CHJW1COLUMBIA-CHIEF JOSEPH DAM09-26-2022INFLOW (KAF)195802124392
24CIBW1COLUMBIA-AT INTL BOUNDARY09-26-2022DISCHARGE (KAF)179831984491
25CLFW1NACHES-NEAR CLIFFDEL09-26-2022DISCHARGE (KAF)8510184
26CLUW1CLE ELUM-CLE ELUM LAKE09-26-2022INFLOW (KAF)7910476
27COEI1COEUR D ALENE-COEUR D ALENE LAKE09-26-2022INFLOW (KAF)27854851
28CSDI1NF PAYETTE-CASCADE DAM09-26-2022INFLOW (KAF)678876
29DEDI1DEADWOOD-NEAR LOWMAN09-26-2022INFLOW (KAF)151792
30DLGM8CLARK FORK-AT DEER LODGE09-26-2022DISCHARGE (KAF)505099
31DRMM8CLARK FORK-NR DRUMMOND09-26-2022DISCHARGE (KAF)127126101
32DWRI1NF CLEARWATER-DWORSHAK DAM09-26-2022INFLOW (KAF)27046958
33EASW1YAKIMA-AT EASTON09-26-2022DISCHARGE (KAF)536779
34EMMI1PAYETTE-NEAR EMMETT09-26-2022DISCHARGE (KAF)22524691
35FCFM8NF FLATHEAD-NEAR COLUMBIA FALLS09-26-2022DISCHARGE (KAF)14319773
36GCDW1COLUMBIA-GRAND COULEE DAM09-26-2022INFLOW (KAF)187062036592
37GIBO3UMATILLA-NEAR GIBBON09-26-2022DISCHARGE (KAF)222685
38HALI1BIG WOOD-AT HAILEY09-26-2022DISCHARGE (KAF)344086
39HEII1SNAKE-NEAR HEISE09-26-2022DISCHARGE (KAF)694560124
40HHWM8SF FLATHEAD-HUNGRY HORSE DAM09-26-2022INFLOW (KAF)14622465
41HODO3HOOD-NEAR TUCKER BRIDGE09-26-2022DISCHARGE (KAF)204175116
42HOPI1PEND OREILLE-PEND OREILLE LAKE NR HOPE09-26-2022LAKE ELEVATION (FT)MMM
43HOTI1BRUNEAU-NEAR HOT SPRINGS09-26-2022DISCHARGE (KAF)192190
44HWRI1BIG LOST-AT HOWELL RANCH NEAR CHILLY09-26-2022DISCHARGE (KAF)182283
45IHDW1SNAKE-ICE HARBOR DAM09-26-2022INFLOW (KAF)4356536381
46IPDI1HENRYS FORK-ISLAND PARK DAM09-26-2022INFLOW (KAF)10410995
47JDAO3COLUMBIA-JOHN DAY DAM09-26-2022INFLOW (KAF)262182993088
48JKSW4SNAKE-NEAR JACKSON09-26-2022DISCHARGE (KAF)33937989
49JLKW4SNAKE-JACKSON LAKE AT DAM09-26-2022INFLOW (KAF)9411184
50KADW1KACHESS-KACHESS DAM09-26-2022INFLOW (KAF)334573
51KEDW1YAKIMA-KEECHELUS LAKE09-26-2022INFLOW (KAF)435086
52KERM8FLATHEAD-SELI’Š KSANKA QLISPE’ DAM09-26-2022INFLOW (KAF)966127176
53KIOW1YAKIMA-AT KIONA09-26-2022DISCHARGE (KAF)46562475
54LAUW1KETTLE-AT LAURIER09-26-2022DISCHARGE (KAF)9311282
55LEOI1KOOTENAI-AT LEONIA09-26-2022DISCHARGE (KAF)26482644100
56LGDW1SNAKE-LOWER GRANITE DAM09-26-2022INFLOW (KAF)4339528882
57LGSW1SNAKE-LITTLE GOOSE DAM09-26-2022INFLOW (KAF)4335532881
58LLKW1SPOKANE-AT LONGLAKE09-26-2022INFLOW (KAF)60494264
59LMNW1SNAKE-LOWER MONUMENTAL DAM09-26-2022INFLOW (KAF)4356534282
60LUCI1BOISE-LUCKY PEAK DAM09-26-2022INFLOW (KAF)717892
61LWRI1LITTLE WOOD-LITTLE WOOD DAM09-26-2022INFLOW (KAF)81263
62LYDM8KOOTENAI-LIBBY DAM09-26-2022INFLOW (KAF)861101385
63MACI1BIG LOST-MACKAY RESERVOIR NEAR MACKAY09-26-2022INFLOW (KAF)334279
64MAGI1BIG WOOD-MAGIC DAM09-26-2022INFLOW (KAF)172279
65MCDW1COLUMBIA-MCNARY DAM09-26-2022INFLOW (KAF)253102904087
66MILI1SNAKE-AT MILNER09-26-2022DISCHARGE (KAF)0480
67MODO3DESCHUTES-AT MOODY NR BIGGS09-26-2022DISCHARGE (KAF)1058125884
68MONO3NF JOHN DAY-AT MONUMENT09-26-2022DISCHARGE (KAF)446271
69MYKO3MCKAY CREEK-NEAR PILOT ROCK09-26-2022DISCHARGE (KAF)1311113
70NACW1NACHES-NEAR NACHES09-26-2022DISCHARGE (KAF)5415634
71NOXM8CLARK FORK-NOXON RAPIDS DAM09-26-2022INFLOW (KAF)2266293477
72ORFI1CLEARWATER-AT OROFINO09-26-2022DISCHARGE (KAF)44659475
73OWYO3OWYHEE-OWYHEE DAM09-26-2022INFLOW (KAF)547671
74PARI1BOISE-NEAR PARMA09-26-2022DISCHARGE (KAF)15921176
75PARW1YAKIMA-NEAR PARKER09-26-2022DISCHARGE (KAF)28939274
76PATW1METHOW-NEAR PATEROS09-26-2022DISCHARGE (KAF)8910486
77PDTO3UMATILLA-AT PENDLETON09-26-2022DISCHARGE (KAF)485390
78PESW1WENATCHEE-AT PESHASTIN09-26-2022DISCHARGE (KAF)18029261
79PIHI1PORTNEUF-AT POCATELLO09-26-2022DISCHARGE (KAF)344479
80PITW1KLICKITAT-NEAR PITT09-26-2022DISCHARGE (KAF)21423392
81PLDI1SF SNAKE-PALISADES DAM09-26-2022INFLOW (KAF)60768688
82PRTI1PRIEST-NEAR PRIEST RIVER09-26-2022DISCHARGE (KAF)21323989
83PRWW1COLUMBIA-PRIEST RAPIDS DAM09-26-2022INFLOW (KAF)204762288789
84RCCM8ROCK CREEK-NEAR CLINTON09-26-2022DISCHARGE (KAF)5050101
85REXI1HENRYS FORK-AT REXBURG09-26-2022DISCHARGE (KAF)38040295
86RIDI1WILLOW CREEK-RIRIE DAM09-26-2022INFLOW (KAF)1410133
87RILW1TIETON-RIMROCK LAKE NEAR RIMROCK09-26-2022INFLOW (KAF)486574
88RRHW1COLUMBIA-ROCKY REACH DAM09-26-2022INFLOW (KAF)202412224091
89SATI1ST MARIES-NEAR SANTA09-26-2022DISCHARGE (KAF)142851
90SERO3JOHN DAY-AT SERVICE CK09-26-2022DISCHARGE (KAF)9212275
91SHYI1SNAKE-NEAR SHELLEY09-26-2022DISCHARGE (KAF)819744110
92SIFI1SNAKE-AB EAGLE ROCK NR IDAHO FALLS09-26-2022DISCHARGE (KAF)835724115
93SJMI1ST JOE-AT ST MARIES09-26-2022STAGE (FT)MMM
94SNAI1SNAKE-AT BLACKFOOT09-26-2022DISCHARGE (KAF)706603117
95SPDI1CLEARWATER-AT SPALDING09-26-2022DISCHARGE (KAF)906107684
96SPOW1SPOKANE-AT SPOKANE09-26-2022DISCHARGE (KAF)43077056
97SRGM8CLARK FORK-AT ST REGIS09-26-2022DISCHARGE (KAF)59671084
98STRM8ST. REGIS-NEAR ST. REGIS09-26-2022DISCHARGE (KAF)212971
99SWAI1SNAKE-BELOW SWAN FALLS09-26-2022DISCHARGE (KAF)1820185398
100TCHW1WALLA WALLA-NEAR TOUCHET09-26-2022DISCHARGE (KAF)8481104
101TDAO3COLUMBIA-THE DALLES DAM09-26-2022INFLOW (KAF)267343066887
102TEAI1TETON-NEAR ST. ANTHONY09-26-2022DISCHARGE (KAF)8910882
103TNAW1TEANAWAY-BELOW FORKS09-26-2022DISCHARGE (KAF)123139
104TONW1OKANOGAN-NEAR TONASKET09-26-2022DISCHARGE (KAF)24128186
105TRYO3GRANDE RONDE-TROY09-26-2022DISCHARGE (KAF)16524069
106UMAO3UMATILLA-NEAR UMATILLA09-26-2022DISCHARGE (KAF)8573116
107UMTW1YAKIMA-AT UMTANUM09-26-2022DISCHARGE (KAF)21127078
108UNDW1WHITE SALMON-NEAR UNDERWOOD09-26-2022DISCHARGE (KAF)195195100
109WANW1COLUMBIA-WANAPUM DAM09-26-2022INFLOW (KAF)204432281990
110WEII1SNAKE-AT WEISER09-26-2022DISCHARGE (KAF)2580270196
111WELW1COLUMBIA-WELLS DAM09-26-2022INFLOW (KAF)199282182991
112WGCM8MF FLATHEAD-NEAR WEST GLACIER09-26-2022DISCHARGE (KAF)7417044
113WHBI1SALMON-AT WHITEBIRD09-26-2022DISCHARGE (KAF)939103791
114WRMO3MALHEUR-WARM SPRINGS DAM09-26-2022INFLOW (KAF)131873
115WSRI1WEISER-NEAR WEISER09-26-2022DISCHARGE (KAF)315359